Weather History for PHMK - April, 2013

Change the Weather History Date:

Saturday, April 13, 2013

  Actual Average Record
Temperature  
Mean Temperature 70 °F -  
Max Temperature 78 °F 79 °F 84 °F (1984)
Min Temperature 63 °F 66 °F 45 °F (2011)
Cooling Degree Days 6    
Growing Degree Days 20 (Base 50)    
Moisture  
Dew Point 66 °F    
Average Humidity 89    
Maximum Humidity 100    
Minimum Humidity 64    
Precipitation  
Precipitation 0.20 in - - ()
Sea Level Pressure  
Sea Level Pressure 29.95 in    
Wind  
Wind Speed 4 mph (ESE)    
Max Wind Speed 14 mph    
Max Gust Speed -    
Visibility 9 miles    
Events Rain    
Averages and records for this station are not official NWS values.
T = Trace of Precipitation, MM = Missing Value Source: NWS Daily Summary

Daily Weather History Graph

Daily Weather History Graph

Search for Another Location

Airport or City:

Trip Planner

Search our weather history database for the weather conditions in past years. The results will help you decide how hot, cold, wet, or windy it might be!

Date:

Astronomy

Apr. 13, 2013 Rise Set
Actual Time 6:10 AM HST 6:47 PM HST
Civil Twilight 5:48 AM HST 7:09 PM HST
Nautical Twilight 5:21 AM HST 7:36 PM HST
Astronomical Twilight 4:54 AM HST 8:03 PM HST
Moon 8:30 AM HST (4/13) 9:59 PM HST (4/13)
Length of Visible Light 13h 21m
Length of Day
12h 36m
Waxing Crescent, 12% of the Moon is Illuminated
Apr 13
Waxing Crescent
Apr 18
First Quarter
Apr 25
Full
May 2
Last Quarter
May 9
New

Hourly Weather History & Observations

Time (HST) Temp. Dew Point Humidity Pressure Visibility Wind Dir Wind Speed Gust Speed Precip Events Conditions
12:54 AM 63.0 °F 63.0 °F 100% 30.00 in 9.0 mi Calm Calm - N/A   Partly Cloudy
1:54 AM 64.9 °F 64.0 °F 97% 29.98 in 10.0 mi Calm Calm - N/A   Partly Cloudy
2:54 AM 64.9 °F 64.9 °F 100% 29.97 in 10.0 mi Calm Calm - N/A   Mostly Cloudy
3:54 AM 64.0 °F 63.0 °F 96% 29.97 in 9.0 mi Calm Calm - N/A   Clear
4:54 AM 64.0 °F 63.0 °F 96% 29.97 in 9.0 mi Calm Calm - N/A   Partly Cloudy
5:54 AM 64.0 °F 64.0 °F 100% 29.97 in 9.0 mi Calm Calm - N/A   Clear
6:54 AM 64.9 °F 64.0 °F 97% 29.91 in 9.0 mi ENE 10.4 mph - N/A   Clear
7:54 AM 70.0 °F 64.9 °F 84% 29.92 in 10.0 mi South 6.9 mph - N/A   Clear
8:54 AM 71.1 °F 68.0 °F 90% 29.94 in 10.0 mi SE 10.4 mph - N/A   Partly Cloudy
9:54 AM 72.0 °F 66.9 °F 84% 29.93 in 10.0 mi SSE 11.5 mph - N/A   Scattered Clouds
10:54 AM 75.0 °F 64.9 °F 71% 29.95 in 10.0 mi SSW 6.9 mph - N/A   Clear
11:54 AM 78.1 °F 64.9 °F 64% 29.94 in 10.0 mi South 5.8 mph - N/A   Partly Cloudy
12:54 PM 75.9 °F 66.9 °F 74% 29.96 in 10.0 mi NNW 13.8 mph - N/A   Scattered Clouds
1:54 PM 75.0 °F 66.9 °F 76% 29.94 in 10.0 mi NNW 6.9 mph - N/A   Scattered Clouds
2:07 PM 73.4 °F 66.2 °F 78% 29.94 in 10.0 mi NNW 5.8 mph - 0.00 in Rain Light Rain
2:23 PM 71.6 °F 68.0 °F 88% 29.93 in 1.8 mi NE 9.2 mph - 0.10 in Rain Heavy Rain
2:29 PM 71.6 °F 68.0 °F 88% 29.93 in 7.0 mi NE 10.4 mph - 0.19 in Rain Rain
2:54 PM 73.0 °F 68.0 °F 84% 29.94 in 7.0 mi SE 5.8 mph - 0.20 in Rain Rain
3:01 PM 73.4 °F 69.8 °F 88% 29.93 in 10.0 mi East 8.1 mph - 0.00 in Rain Rain
3:54 PM 73.9 °F 70.0 °F 87% 29.93 in 10.0 mi SSE 8.1 mph - 0.00 in Rain Rain
4:01 PM 73.4 °F 68.0 °F 83% 29.92 in 10.0 mi South 9.2 mph - 0.00 in   Mostly Cloudy
4:54 PM 73.0 °F 68.0 °F 84% 29.94 in 10.0 mi SSE 6.9 mph - 0.00 in   Mostly Cloudy
5:01 PM 73.4 °F 68.0 °F 83% 29.93 in 10.0 mi South 8.1 mph - N/A   Partly Cloudy
5:54 PM 72.0 °F 68.0 °F 87% 29.94 in 10.0 mi SSE 6.9 mph - N/A   Scattered Clouds
6:54 PM 70.0 °F 68.0 °F 93% 29.98 in 10.0 mi WNW 4.6 mph - N/A   Mostly Cloudy
7:03 PM 69.8 °F 68.0 °F 94% 29.95 in 10.0 mi SE 5.8 mph - N/A   Scattered Clouds
7:54 PM 69.1 °F 68.0 °F 96% 29.96 in 10.0 mi Calm Calm - N/A   Clear
8:54 PM 69.1 °F 68.0 °F 96% 29.97 in 10.0 mi ENE 3.5 mph - N/A   Clear
9:54 PM 66.9 °F 64.9 °F 93% 29.99 in 10.0 mi ENE 3.5 mph - N/A   Clear
10:54 PM 64.0 °F 63.0 °F 96% 29.99 in 9.0 mi Calm Calm - N/A   Clear
11:54 PM 64.9 °F 64.0 °F 97% 29.97 in 10.0 mi East 3.5 mph - N/A   Clear